Regional Weather Roundup
Issued by NWS

Home | Current Version | Previous Version | Text Only | Print | Product List | Glossary On
Versions: 1 2 3 4 5 6 7 8 9 10 11 12 13 14 15 16 17 18 19 20 21 22 23 24 25 26 27 28 29 30 31 32 33 34 35 36 37 38 39 40 41 42 43 44 45 46 47 48 49 50
000
ASUS44 KFWD 221203
RWRTX
NORTH TEXAS HOURLY WEATHER ROUNDUP
NATIONAL WEATHER SERVICE FORT WORTH TX
600 AM CST THU FEB 22 2018

NOTE: "FAIR" INDICATES FEW OR NO CLOUDS BELOW 12,000 FEET WITH NO
SIGNIFICANT WEATHER AND/OR OBSTRUCTIONS TO VISIBILITY.

TXZ118-119-221300-
DALLAS/FORT WORTH METROPLEX

CITY           SKY/WX    TMP DP  RH WIND       PRES   REMARKS
DFW AIRPORT    DRIZZLE   35  34  96 N10       30.26F FOG     WCI  27
6HR MIN TEMP:  34; 6HR MAX TEMP:  36; 6HR PCP: TRACE;

DALLAS LOVE    CLOUDY    34  34 100 N13       30.28F FOG     WCI  25
6HR MIN TEMP:  34; 6HR MAX TEMP:  36; 6HR PCP: TRACE;

FTW MEACHAM    CLOUDY    33  32  96 NW10      30.28F FOG     WCI  25
6HR MIN TEMP:  33; 6HR MAX TEMP:  34;

DAL-EXECUTIVE  CLOUDY    35  34  96 N12       30.26F FOG     WCI  27
6HR MIN TEMP:  34; 6HR MAX TEMP:  35; 6HR PCP: TRACE;

FTW-ALLIANCE   FRZ DRZL  32  32 100 N10       30.28F FOG     WCI  24
6HR MIN TEMP:  31; 6HR MAX TEMP:  32; 6HR PCP: TRACE;

FTW-NAS-JRB    CLOUDY    33  31  92 N13       30.29S FOG     WCI  24
6HR MIN TEMP:  32; 6HR MAX TEMP:  33;

FTW-SPINKS     CLOUDY    32  32  99 N8        30.30R FOG     WCI  25
6HR MIN TEMP:  32; 6HR MAX TEMP:  33;

ARLINGTON      CLOUDY    32  32 100 NW12      30.28F FOG     WCI  23
6HR MIN TEMP:  32; 6HR MAX TEMP:  33;

GRAND PRAIRIE  CLOUDY    33  33 100 N10       30.29F WCI  25
6HR MIN TEMP:  33; 6HR MAX TEMP:  34;

ADDISON        CLOUDY    34  32  93 N12       30.28F FOG     WCI  25
MESQUITE       CLOUDY    35  34  98 N9        30.28F WCI  27
6HR MIN TEMP:  35; 6HR MAX TEMP:  35;

LANCASTER      CLOUDY    35  34  97 N13       30.27F FOG     WCI  26
6HR MIN TEMP:  34; 6HR MAX TEMP:  35;

$$

TXZ091>094-102>105-117-120-121-131>134-221300-
NORTH CENTRAL TEXAS

CITY           SKY/WX    TMP DP  RH WIND       PRES   REMARKS
SHRMAN/DENISON NOT AVBL
BOWIE          CLOUDY    29  29  99 N3        30.31R FOG
6HR MIN TEMP:  28; 6HR MAX TEMP:  29;

BRIDGEPORT     CLOUDY    30  30 100 CALM      30.32S FOG
6HR MIN TEMP:  30; 6HR MAX TEMP:  30;

DECATUR        CLOUDY    30  29  98 CALM      30.27F FOG
6HR MIN TEMP:  29; 6HR MAX TEMP:  30;

DENTON         CLOUDY    31  31 100 N10       30.29F FOG     WCI  22
6HR MIN TEMP:  31; 6HR MAX TEMP:  32; 6HR PCP: TRACE;

MCKINNEY       FOG       34  34 100 N12       30.29S VSB 1   WCI  25
6HR MIN TEMP:  33; 6HR MAX TEMP:  34; 6HR PCP: TRACE;

ROCKWALL       CLOUDY    35  35 100 N9        30.28F FOG     WCI  28
6HR MIN TEMP:  35; 6HR MAX TEMP:  36;

TERRELL        CLOUDY    36  35  96 N9        30.27F FOG     WCI  29
6HR MIN TEMP:  36; 6HR MAX TEMP:  37; 6HR PCP: TRACE;

WAXAHACHIE     CLOUDY    33  33 100 NW8       30.29R FOG     WCI  26
6HR MIN TEMP:  33; 6HR MAX TEMP:  34;

CLEBURNE       CLOUDY    32  32 100 MISG      30.28S FOG
GRANBURY       CLOUDY    32  31  96 NW7       30.29F FOG     WCI  26
6HR MIN TEMP:  32; 6HR MAX TEMP:  32;

$$

TXZ083>090-098>101-113>116-127>130-139>142-154-155-221300-
WESTERN NORTH TEXAS

CITY           SKY/WX    TMP DP  RH WIND       PRES   REMARKS
WICHITA FALLS  CLOUDY    29  27  92 N8        30.33R FOG     WCI  21
6HR MIN TEMP:  27; 6HR MAX TEMP:  29;

WF-KICKAPOO    CLOUDY    29  28  98 N6        30.36R FOG     WCI  23
6HR MIN TEMP:  28; 6HR MAX TEMP:  29;

VERNON         CLOUDY    30  27  89 N7        30.33F WCI  23
6HR MIN TEMP:  25; 6HR MAX TEMP:  33;

ABILENE        CLOUDY    26  26 100 N10       30.23F FOG     WCI  16
6HR MIN TEMP:  25; 6HR MAX TEMP:  26;

ABILENE-DYESS  FRZ DRZL  27  27  99 N7        30.24F FOG     WCI  20
6HR MIN TEMP:  26; 6HR MAX TEMP:  27; 6HR PCP:  0.01;

CISCO          MIX PCPN  27  27 100 N10       30.25F WCI  17
EASTLAND       CLOUDY    27  27  97 N8        30.26F FOG     WCI  19
6HR MIN TEMP:  26; 6HR MAX TEMP:  27;

RANGER         CLOUDY    28  28 100 CALM      30.27R FOG
6HR MIN TEMP:  27; 6HR MAX TEMP:  28;

MINERAL WELLS  CLOUDY    29  28  96 N10       30.27F FOG     WCI  20
6HR MIN TEMP:  28; 6HR MAX TEMP:  30;

STEPHENVILLE   CLOUDY    30  29  96 CALM      30.29R
6HR MIN TEMP:  29; 6HR MAX TEMP:  30;

COMANCHE       CLOUDY    29  29 100 N8        30.23F FOG     WCI  22
6HR MIN TEMP:  28; 6HR MAX TEMP:  29;

BROWNWOOD      LGT RAIN  30  28  93 MISG      30.23F
COLEMAN        CLOUDY    29  29  99 N13       30.23F FOG     WCI  19
6HR MIN TEMP:  28; 6HR MAX TEMP:  29;

$$

TXZ143>147-156>162-174-175-221300-
CENTRAL TEXAS

CITY           SKY/WX    TMP DP  RH WIND       PRES   REMARKS
WACO           CLOUDY    34  33  96 N13       30.25F FOG     WCI  25
6HR MIN TEMP:  34; 6HR MAX TEMP:  35;

WACO-MCGREGOR  LGT SNOW  33  33 100 N8        30.26F FOG     WCI  26
6HR MIN TEMP:  33; 6HR MAX TEMP:  34; 6HR PCP: TRACE;

HILLSBORO      CLOUDY    34  34 100 N13       30.26F FOG     WCI  25
6HR MIN TEMP:  34; 6HR MAX TEMP:  35; 6HR PCP:  0.14;

CORSICANA      MIX PCPN  37  37 100 N8        30.27R FOG     WCI  31
6HR MIN TEMP:  37; 6HR MAX TEMP:  38; 6HR PCP: TRACE;

MEXIA          CLOUDY    37  36  96 N7        30.24S FOG     WCI  31
6HR MIN TEMP:  36; 6HR MAX TEMP:  37;

HEARNE         DRIZZLE   38  38 100 NW8       30.25R WCI  33
6HR MIN TEMP:  38; 6HR MAX TEMP:  39;

CAMERON        CLOUDY    37  37  99 N13       30.25S FOG     WCI  29
6HR MIN TEMP:  37; 6HR MAX TEMP:  39;

TEMPLE         CLOUDY    33  33 100 N13       30.25R FOG     WCI  24
6HR MIN TEMP:  33; 6HR MAX TEMP:  35; 6HR PCP: TRACE;

KILLEEN        CLOUDY    32  32 100 N9        30.21F FOG     WCI  24
                                      6HR PCP:  0.01;

KILLEEN-SKYLRK MIX PCPN  33  33 100 N8        30.23F FOG     WCI  26
6HR MIN TEMP:  33; 6HR MAX TEMP:  34; 6HR PCP:  0.01;

GATESVILLE     LGT RAIN  32  32 100 N7        30.25S WCI  26
HAMILTON       CLOUDY    32  32 100 N9        30.23F FOG     WCI  24
6HR MIN TEMP:  31; 6HR MAX TEMP:  32;

LAMPASAS         N/A     32  31  96 N3        30.22R
$$

TXZ095>097-106>112-122>126-135>138-148>153-164>167-221300-
EAST TEXAS

CITY           SKY/WX    TMP DP  RH WIND       PRES   REMARKS
PARIS          CLOUDY    37  36  96 N9        30.28S FOG     WCI  30
6HR MIN TEMP:  36; 6HR MAX TEMP:  37; 6HR PCP: TRACE;

SULPHUR SPRNGS CLOUDY    38  38 100 N10       30.31R FOG     WCI  31
6HR MIN TEMP:  37; 6HR MAX TEMP:  38;

MOUNT PLEASANT CLOUDY    41  41  99 NW7       30.28S WCI  36
6HR MIN TEMP:  41; 6HR MAX TEMP:  47;

GILMER           N/A     41  41 100 NW6       30.26R FOG     WCI  37
6HR MIN TEMP:  41; 6HR MAX TEMP:  48;

MINEOLA        CLOUDY    39  37  93 NW7       30.27S FOG     WCI  34
TYLER          CLOUDY    40  31  70 N8        30.24S HAZE    WCI  34
6HR MIN TEMP:  40; 6HR MAX TEMP:  44;

LONGVIEW       CLOUDY    47  50 100 NW7       30.24R FOG
6HR MIN TEMP:  47; 6HR MAX TEMP:  53;

MARSHALL       CLOUDY    50  48  93 CALM      30.26S
6HR MIN TEMP:  50; 6HR MAX TEMP:  50; 6HR PCP:  0.01;

ATHENS         CLOUDY    36  36 100 N7        30.25R FOG     WCI  30
PALESTINE      CLOUDY    40  40 100 N7        30.25R FOG     WCI  36
JACKSONVILLE   FOG       43  43 100 N6        30.24R VSB 1/4 WCI  39
HENDERSON      CLOUDY    46  46  99 N6        30.26R FOG
6HR MIN TEMP:  46; 6HR MAX TEMP:  52;

CENTER         RAIN      50  49  95 N3        30.25R
6HR MIN TEMP:  50; 6HR MAX TEMP:  52; 6HR PCP:  0.35;

NACOGDOCHES    LGT RAIN  52  51  97 N6        30.23S
6HR MIN TEMP:  52; 6HR MAX TEMP:  53; 6HR PCP:  0.04;

LUFKIN         LGT RAIN  54  54 100 N5        30.21R
6HR MIN TEMP:  53; 6HR MAX TEMP:  54; 6HR PCP:  0.78;

$$

SUPPLEMENTAL OBSERVATIONS (NWS FORT WORTH AREA)

CITY           SKY/WX    TMP DP  RH WIND       PRES   REMARKS
$$

SUPPLEMENTAL OBSERVATIONS (NWS NORMAN AREA)

CITY           SKY/WX    TMP DP  RH WIND       PRES   REMARKS
GOODLETT         N/A     27  25  95 N5        30.30F WCI  21
ODELL            N/A     28  28  99 NW5       30.34S WCI  23
CROWELL          N/A     27  26  98 N8        30.32F WCI  18
KNOX CITY        N/A     27  26  93 N7        30.29F WCI  20
SEYMOUR          N/A     28  27  96 N9        30.29F WCI  19
$$

SUPPLEMENTAL OBSERVATIONS (NWS SAN ANGELO AREA)

CITY           SKY/WX    TMP DP  RH WIND       PRES   REMARKS
WEINERT          N/A     27  25  94 N7        30.28F WCI  19
HASKELL          N/A     27  26  99 N8


USA.gov is the U.S. government's official web portal to all federal, state and local government web resources and services.